This is the latest recevied weather packets stored in our database for station/object K7CTM. If no packets are shown the sender has not sent any weather packets the latest 10 day(s).
| Time | Temp. | Humidity | Pressure | Rain* | Wind** | Luminosity | Snow |
|---|---|---|---|---|---|---|---|
| 1777598714 | 13.89° C | 31% | 1029.8 hPa | 0 mm | - | 40 W/m² | - |
| 1777598410 | 13.89° C | 32% | 1029.7 hPa | 0 mm | - | 37 W/m² | - |
| 1777598109 | 15° C | 30% | 1029.8 hPa | 0 mm | - | 45 W/m² | - |
| 1777597809 | 15° C | 31% | 1029.7 hPa | 0 mm | - | 65 W/m² | - |
| 1777597503 | 15° C | 29% | 1029.7 hPa | 0 mm | - | 74 W/m² | - |
| 1777597199 | 15° C | 29% | 1029.7 hPa | 0 mm | - | 84 W/m² | - |
| 1777596895 | 15° C | 28% | 1029.7 hPa | 0 mm | - | 95 W/m² | - |
| 1777596592 | 15° C | 30% | 1029.6 hPa | 0 mm | - | 106 W/m² | - |
| 1777596288 | 15.56° C | 28% | 1029.6 hPa | 0 mm | - | 121 W/m² | - |
| 1777595986 | 15.56° C | 30% | 1029.8 hPa | 0 mm | - | 132 W/m² | - |
| 1777595680 | 16.11° C | 31% | 1029.7 hPa | 0 mm | - | 145 W/m² | - |
| 1777595376 | 16.11° C | 28% | 1029.7 hPa | 0 mm | - | 158 W/m² | - |
| 1777595073 | 16.11° C | 31% | 1029.9 hPa | 0 mm | - | 171 W/m² | - |
| 1777594770 | 16.11° C | 31% | 1029.8 hPa | 0 mm | - | 188 W/m² | - |
| 1777594466 | 15.56° C | 30% | 1029.8 hPa | 0 mm | - | 201 W/m² | - |
| 1777594161 | 14.44° C | 29% | 1029.8 hPa | 0 mm | - | 220 W/m² | - |
| 1777593858 | 15° C | 30% | 1029.8 hPa | 0 mm | - | 72 W/m² | - |
| 1777593555 | 15.56° C | 30% | 1029.9 hPa | 0 mm | - | 175 W/m² | - |
| 1777593255 | 16.11° C | 28% | 1030 hPa | 0 mm | - | 269 W/m² | - |
| 1777592955 | 15° C | 29% | 1029.7 hPa | 0 mm | - | 180 W/m² | - |
| 1777592649 | 16.67° C | 29% | 1029.7 hPa | 0 mm | - | 86 W/m² | - |
| 1777592346 | 16.67° C | 30% | 1029.8 hPa | 0 mm | - | 320 W/m² | - |
| 1777592041 | 16.11° C | 30% | 1029.9 hPa | 0 mm | - | 343 W/m² | - |
| 1777591739 | 16.11° C | 28% | 1030 hPa | 0 mm | - | 286 W/m² | - |
| 1777591434 | 16.67° C | 28% | 1029.9 hPa | 0 mm | - | 380 W/m² | - |
* Rain latest hour (hover to see other rain measurements)
** Current wind speed in m/s (hover to see current wind gust speed)